Temp
-6 -6 -6 -5 -5 -5 -6 -6 -6 -6 -5 -6 -7 -7 -7 -7 -7 -7 -7 -7 -7 -7 -7 -7 -7 -6 -6 -6 -6 -7 -7 -7 -7 -7 -6 -6 -6 -6 -7 -6 -7 -7 -7 -6 -6 -6 -7 -7 -8
-6 -6 -6 -6 -6 -5 -5 -5 -6 -6 -6 -6 -5 -6 -7 -7 -7 -7 -7 -7 -7 -7 -7 -7 -7 -7 -6 -6 -6 -6 -6 -7 -7 -7 -6 -7 -7 -7 -7 -7 -7 -7 -6 -6 -6 -7 -7 -7 -8
-6 -6 -6 -5 -6 -6 -4 -4 -5 -6 -6 -6 -6 -6 -7 -6 -7 -7 -7 -7 -6 -7 -7 -7 -6 -7 -6 -6 -6 -6 -6 -6 -7 -7 -6 -7 -7 -7 -7 -7 -7 -6 -6 -6 -6 -7 -7 -7 -7
-6 -6 -6 -6 -6 -5 -4 -4 -5 -5 -6 -6 -6 -6 -6 -6 -7 -7 -6 -6 -7 -7 -7 -7 -7 -7 -6 -6 -6 -6 -6 -6 -6 -6 -6 -7 -7 -7 -7 -7 -6 -6 -6 -6 -6 -7 -7 -7 -7
-6 -6 -6 -6 -6 -5 -4 -4 -5 -6 -7 -6 -6 -6 -6 -6 -7 -7 -6 -6 -7 -7 -7 -7 -7 -7 -6 -6 -6 -6 -6 -6 -6 -7 -7 -7 -7 -7 -7 -7 -6 -6 -6 -6 -6 -7 -7 -7 -7
-6 -6 -5 -6 -6 -5 -6 -5 -7 -6 -6 -6 -7 -7 -6 -6 -7 -7 -6 -6 -7 -7 -7 -7 -7 -7 -6 -6 -6 -6 -6 -6 -6 -7 -7 -7 -7 -7 -7 -7 -6 -6 -6 -6 -7 -7 -8 -8 -8
-6 -6 -5 -5 -6 -6 -6 -6 -6 -6 -6 -7 -7 -6 -6 -6 -7 -7 -6 -6 -7 -7 -7 -7 -7 -7 -6 -6 -6 -6 -6 -6 -6 -7 -7 -7 -7 -8 -8 -7 -7 -7 -6 -7 -7 -9 -8 -8 -8
-6 -7 -6 -5 -6 -5 -6 -6 -6 -6 -6 -6 -7 -7 -6 -6 -6 -7 -7 -6 -6 -6 -6 -6 -6 -6 -6 -6 -6 -6 -7 -6 -7 -7 -7 -8 -8 -8 -8 -7 -7 -7 -7 -7 -8 -8 -8 -9 -9
-7 -5 -5 -6 -6 -6 -6 -6 -6 -6 -6 -6 -7 -7 -7 -6 -7 -7 -7 -6 -6 -6 -6 -6 -6 -6 -6 -6 -6 -6 -6 -7 -7 -7 -7 -7 -7 -8 -8 -7 -7 -7 -7 -8 -8 -8 -8 -8 -8
-7 -5 -6 -7 -6 -5 -7 -6 -6 -6 -7 -6 -7 -6 -6 -7 -7 -6 -7 -7 -7 -6 -6 -6 -6 -6 -6 -6 -6 -6 -6 -7 -6 -7 -7 -7 -7 -7 -8 -7 -7 -7 -7 -8 -8 -7 -8 -8 -9
-6 -5 -5 -6 -6 -6 -7 -6 -6 -6 -6 -6 -6 -7 -6 -7 -6 -6 -7 -7 -6 -6 -6 -6 -6 -6 -6 -6 -6 -7 -7 -7 -7 -7 -6 -7 -7 -7 -7 -7 -7 -7 -7 -7 -7 -7 -8 -8 -9
-6 -5 -6 -6 -6 -6 -5 -6 -6 -6 -7 -6 -6 -6 -7 -6 -7 -7 -7 -7 -7 -7 -6 -7 -6 -6 -6 -6 -7 -6 -6 -7 -7 -7 -7 -7 -7 -8 -7 -8 -7 -7 -6 -7 -7 -7 -8 -8 -8
-6 -6 -7 -6 -6 -6 -6 -5 -5 -5 -6 -7 -6 -6 -6 -7 -6 -7 -6 -6 -6 -7 -6 -6 -6 -6 -6 -6 -6 -6 -6 -6 -7 -7 -7 -7 -7 -7 -7 -8 -7 -6 -6 -7 -7 -7 -8 -8 -7
-7 -7 -7 -7 -6 -5 -6 -6 -5 -6 -6 -6 -6 -7 -6 -7 -6 -7 -6 -7 -6 -6 -6 -6 -6 -6 -6 -5 -5 -6 -6 -7 -7 -7 -7 -7 -7 -8 -8 -8 -7 -6 -7 -7 -7 -7 -8 -8 -8
-7 -7 -7 -7 -6 -6 -5 -5 -6 -6 -6 -6 -6 -6 -7 -7 -8 -7 -6 -6 -6 -6 -6 -6 -6 -7 -6 -6 -6 -7 -7 -7 -7 -7 -7 -7 -8 -8 -8 -8 -8 -7 -7 -7 -7 -7 -8 -8 -7
-7 -8 -8 -7 -7 -6 -6 -6 -7 -6 -6 -6 -6 -5 -7 -7 -8 -8 -6 -6 -6 -6 -7 -6 -6 -7 -7 -7 -6 -7 -7 -8 -7 -7 -8 -8 -8 -8 -8 -8 -8 -7 -7 -7 -7 -7 -7 -8 -8
-8 -9 -8 -7 -7 -6 -7 -6 -7 -7 -6 -6 -6 -5 -5 -7 -7 -7 -7 -7 -7 -7 -6 -7 -7 -7 -7 -7 -7 -7 -7 -8 -8 -8 -8 -9 -8 -8 -8 -8 -7 -7 -7 -7 -7 -7 -7 -7 -8
-9 -9 -7 -6 -6 -6 -6 -7 -8 -8 -7 -7 -7 -6 -5 -6 -7 -7 -7 -7 -7 -7 -7 -7 -7 -7 -7 -7 -7 -7 -7 -8 -8 -8 -8 -9 -9 -8 -9 -8 -7 -7 -8 -7 -7 -7 -7 -8 -8
-9 -8 -7 -8 -8 -8 -7 -7 -7 -7 -7 -7 -7 -7 -5 -5 -7 -7 -7 -7 -7 -7 -7 -7 -7 -7 -7 -8 -8 -8 -8 -8 -8 -8 -8 -8 -8 -8 -9 -9 -8 -8 -8 -7 -7 -8 -8 -8 -8
-9 -9 -8 -8 -8 -8 -8 -7 -6 -6 -7 -7 -6 -7 -6 -6 -6 -7 -6 -7 -6 -7 -7 -7 -7 -7 -7 -7 -8 -8 -8 -8 -8 -9 -9 -8 -8 -8 -8 -9 -9 -8 -8 -8 -7 -7 -8 -8 -8
-10 -9 -9 -8 -9 -9 -9 -9 -6 -6 -7 -7 -7 -7 -7 -6 -7 -6 -7 -7 -6 -6 -7 -7 -7 -7 -7 -7 -8 -8 -8 -8 -8 -8 -9 -9 -8 -8 -7 -7 -9 -8 -7 -8 -7 -8 -8 -7 -8
-10 -10 -9 -9 -9 -8 -8 -8 -7 -7 -7 -8 -7 -6 -7 -7 -7 -7 -7 -7 -6 -7 -7 -8 -8 -8 -7 -7 -8 -8 -8 -8 -8 -8 -8 -8 -8 -7 -7 -8 -8 -8 -8 -8 -7 -8 -7 -8 -8
-9 -9 -9 -10 -9 -8 -8 -8 -8 -8 -7 -7 -8 -8 -8 -7 -7 -7 -6 -6 -6 -7 -7 -7 -7 -7 -7 -7 -7 -7 -7 -8 -8 -8 -8 -8 -8 -8 -8 -8 -9 -8 -8 -8 -7 -8 -7 -7 -8
-9 -9 -10 -10 -10 -9 -8 -8 -8 -8 -7 -7 -7 -7 -7 -7 -6 -6 -6 -5 -6 -6 -7 -7 -7 -6 -7 -7 -7 -7 -7 -7 -8 -8 -8 -8 -8 -8 -7 -7 -8 -8 -8 -8 -7 -7 -7 -7 -7
-9 -10 -10 -10 -10 -10 -9 -8 -8 -8 -8 -7 -7 -7 -6 -6 -6 -7 -7 -6 -6 -6 -6 -8 -7 -7 -6 -7 -7 -6 -7 -7 -7 -8 -8 -8 -8 -8 -8 -8 -8 -8 -8 -8 -8 -8 -7 -7 -7
-10 -10 -10 -10 -10 -10 -10 -8 -8 -8 -8 -8 -7 -7 -7 -7 -6 -7 -7 -7 -6 -6 -6 -7 -7 -7 -6 -7 -7 -7 -6 -7 -7 -7 -8 -8 -8 -8 -8 -8 -8 -8 -8 -8 -8 -8 -7 -7 -7
-10 -10 -10 -10 -10 -10 -10 -9 -9 -9 -9 -8 -8 -8 -6 -7 -7 -7 -7 -7 -7 -7 -6 -6 -7 -6 -6 -7 -6 -7 -7 -7 -7 -7 -7 -7 -7 -8 -8 -8 -8 -8 -7 -7 -8 -8 -8 -7 -7
-9 -11 -11 -10 -10 -10 -10 -9 -8 -8 -9 -8 -9 -8 -8 -7 -7 -7 -7 -7 -7 -7 -6 -6 -6 -7 -7 -7 -7 -7 -7 -7 -7 -7 -7 -7 -7 -7 -8 -8 -7 -8 -8 -7 -7 -8 -7 -7 -7
-10 -10 -10 -10 -10 -10 -10 -9 -9 -8 -8 -8 -8 -8 -8 -7 -7 -7 -7 -7 -7 -7 -6 -6 -7 -7 -7 -7 -7 -7 -7 -7 -7 -7 -8 -7 -7 -7 -8 -8 -8 -8 -8 -8 -7 -7 -7 -7 -7
-10 -10 -11 -11 -10 -10 -10 -9 -8 -9 -9 -8 -7 -8 -9 -9 -7 -7 -7 -7 -7 -7 -6 -7 -7 -7 -7 -7 -7 -7 -7 -7 -7 -7 -8 -7 -7 -7 -7 -8 -7 -8 -8 -8 -8 -7 -7 -7 -7
Height
5880 5881 5881 5882 5883 5882 5881 5882 5879 5878 5878 5879 5879 5879 5880 5880 5880 5884 5882 5883 5884 5885 5887 5889 5890 5893 5894 5896 5898 5898 5898 5899 5900 5901 5901 5901 5902 5901 5899 5898 5898 5898 5898 5898 5896 5895 5896 5894 5893
5882 5882 5881 5881 5882 5881 5881 5879 5879 5878 5878 5879 5879 5879 5880 5879 5879 5880 5882 5883 5884 5885 5887 5887 5889 5892 5894 5896 5897 5897 5898 5900 5901 5902 5902 5902 5902 5902 5901 5900 5900 5900 5900 5900 5900 5899 5897 5895 5894
5881 5882 5882 5881 5882 5882 5882 5880 5881 5879 5878 5878 5879 5880 5880 5879 5879 5880 5882 5883 5884 5884 5886 5886 5887 5890 5894 5896 5897 5897 5898 5899 5900 5902 5902 5902 5904 5904 5903 5902 5903 5904 5903 5902 5901 5900 5899 5897 5895
5880 5881 5880 5879 5881 5883 5884 5883 5881 5879 5877 5878 5879 5880 5880 5879 5879 5880 5881 5882 5882 5883 5885 5886 5887 5889 5894 5896 5896 5897 5898 5898 5899 5901 5903 5903 5905 5904 5903 5904 5906 5906 5905 5904 5904 5902 5901 5899 5897
5882 5881 5880 5878 5879 5882 5884 5884 5881 5881 5878 5878 5879 5880 5880 5879 5879 5879 5881 5881 5881 5883 5885 5887 5888 5891 5893 5895 5895 5896 5897 5897 5899 5901 5903 5904 5905 5905 5904 5906 5909 5909 5908 5907 5906 5904 5902 5901 5901
5881 5879 5879 5878 5877 5879 5883 5882 5881 5881 5879 5880 5880 5879 5880 5878 5879 5881 5882 5881 5882 5883 5885 5886 5888 5891 5893 5894 5896 5896 5897 5898 5900 5901 5903 5904 5905 5905 5905 5908 5911 5911 5910 5910 5908 5908 5906 5905 5904
5882 5877 5874 5875 5876 5879 5882 5881 5882 5880 5880 5879 5880 5880 5880 5879 5880 5882 5881 5881 5881 5882 5884 5887 5889 5890 5893 5894 5895 5897 5897 5899 5899 5900 5903 5904 5904 5906 5906 5910 5912 5913 5913 5912 5912 5911 5909 5908 5907
5881 5880 5876 5875 5876 5878 5880 5880 5880 5881 5881 5879 5880 5880 5880 5881 5882 5882 5882 5882 5881 5882 5884 5885 5887 5888 5891 5893 5894 5895 5895 5898 5898 5899 5901 5903 5904 5906 5908 5911 5914 5916 5916 5915 5914 5912 5913 5911 5910
5882 5881 5879 5876 5878 5880 5879 5878 5879 5880 5879 5881 5880 5879 5881 5881 5882 5882 5882 5881 5882 5882 5883 5885 5886 5888 5890 5891 5892 5895 5896 5897 5898 5899 5900 5903 5903 5906 5908 5911 5915 5917 5918 5917 5916 5915 5913 5914 5913
5883 5882 5878 5878 5878 5878 5876 5878 5879 5880 5880 5882 5880 5880 5882 5883 5882 5883 5881 5880 5881 5883 5883 5885 5886 5887 5889 5890 5892 5894 5895 5896 5897 5898 5901 5903 5904 5906 5909 5913 5917 5919 5919 5921 5917 5918 5917 5917 5915
5882 5881 5878 5877 5876 5876 5874 5875 5879 5879 5879 5882 5881 5880 5882 5882 5883 5883 5883 5882 5882 5883 5884 5885 5886 5887 5888 5888 5890 5892 5894 5895 5895 5898 5900 5905 5904 5906 5909 5913 5916 5917 5919 5921 5922 5921 5920 5921 5920
5882 5881 5881 5880 5878 5878 5876 5880 5879 5879 5880 5881 5881 5880 5882 5883 5884 5885 5885 5883 5883 5884 5885 5886 5886 5887 5888 5887 5887 5889 5892 5894 5895 5897 5900 5903 5904 5907 5912 5917 5918 5919 5920 5922 5923 5925 5923 5923 5923
5881 5882 5881 5880 5880 5881 5881 5880 5879 5879 5879 5880 5881 5882 5883 5883 5883 5883 5885 5884 5883 5885 5886 5886 5886 5885 5887 5885 5884 5887 5892 5894 5894 5894 5898 5902 5905 5908 5914 5918 5920 5921 5922 5924 5924 5927 5928 5926 5926
5881 5881 5880 5881 5880 5879 5878 5877 5875 5877 5878 5879 5881 5883 5884 5882 5883 5882 5884 5885 5884 5885 5887 5887 5888 5888 5889 5889 5888 5889 5893 5894 5894 5896 5899 5902 5905 5909 5913 5919 5922 5923 5923 5926 5925 5926 5929 5929 5930
5879 5881 5879 5879 5878 5878 5877 5874 5873 5874 5875 5877 5879 5883 5883 5881 5880 5882 5883 5885 5884 5885 5887 5888 5889 5890 5891 5892 5891 5892 5894 5893 5895 5897 5900 5902 5905 5909 5912 5918 5923 5926 5925 5927 5928 5928 5930 5930 5930
5878 5879 5878 5877 5875 5875 5875 5874 5870 5872 5875 5877 5879 5883 5881 5881 5881 5882 5882 5883 5883 5885 5886 5887 5888 5890 5891 5892 5893 5892 5894 5896 5897 5899 5901 5904 5907 5908 5912 5916 5921 5926 5927 5929 5930 5930 5932 5931 5934
5875 5878 5876 5876 5873 5873 5874 5873 5870 5872 5871 5873 5877 5881 5881 5881 5883 5882 5881 5882 5884 5885 5886 5887 5888 5890 5892 5893 5895 5896 5897 5898 5900 5902 5902 5905 5908 5911 5911 5915 5920 5925 5928 5930 5929 5932 5934 5933 5936
5874 5876 5874 5872 5873 5872 5873 5872 5872 5872 5870 5871 5873 5877 5879 5879 5880 5881 5881 5881 5883 5884 5885 5887 5888 5891 5892 5894 5895 5895 5898 5900 5901 5902 5903 5904 5907 5911 5913 5915 5919 5923 5927 5930 5930 5932 5934 5934 5938
5872 5872 5871 5871 5872 5871 5872 5873 5872 5872 5871 5870 5872 5875 5877 5879 5879 5879 5881 5880 5883 5885 5885 5886 5888 5890 5891 5893 5895 5895 5896 5898 5900 5903 5904 5905 5907 5910 5912 5913 5917 5921 5926 5928 5930 5931 5933 5936 5937
5870 5870 5869 5870 5871 5871 5871 5872 5873 5871 5871 5871 5867 5873 5877 5877 5878 5878 5880 5880 5883 5883 5884 5885 5886 5888 5890 5894 5896 5898 5900 5898 5899 5901 5903 5904 5906 5909 5910 5910 5913 5919 5923 5926 5929 5931 5931 5933 5933
5867 5867 5867 5868 5869 5870 5870 5870 5869 5868 5867 5868 5868 5869 5871 5875 5878 5880 5880 5883 5883 5884 5884 5886 5886 5887 5889 5892 5895 5896 5900 5900 5901 5902 5902 5904 5906 5907 5909 5909 5911 5916 5921 5924 5928 5930 5932 5934 5933
5866 5864 5865 5866 5868 5868 5869 5869 5866 5865 5867 5868 5867 5866 5867 5873 5876 5877 5881 5883 5884 5884 5883 5884 5885 5885 5887 5890 5892 5895 5897 5899 5900 5902 5903 5904 5907 5909 5907 5908 5910 5916 5921 5922 5927 5928 5930 5932 5932
5865 5863 5863 5863 5864 5865 5866 5866 5865 5865 5865 5865 5866 5865 5868 5870 5874 5877 5880 5882 5884 5882 5881 5882 5883 5884 5885 5887 5890 5893 5896 5899 5901 5903 5904 5904 5906 5908 5908 5908 5911 5915 5919 5921 5925 5927 5928 5930 5931
5861 5861 5860 5861 5861 5862 5863 5864 5865 5864 5865 5864 5864 5864 5865 5870 5873 5873 5876 5875 5878 5878 5881 5881 5884 5885 5885 5886 5888 5891 5895 5896 5900 5902 5903 5903 5904 5906 5908 5909 5910 5913 5917 5919 5921 5923 5925 5928 5929
5857 5858 5857 5857 5857 5859 5861 5861 5864 5863 5862 5861 5862 5863 5864 5866 5868 5871 5873 5874 5875 5877 5878 5879 5880 5883 5885 5886 5887 5889 5892 5895 5897 5899 5901 5902 5903 5905 5906 5908 5909 5910 5912 5915 5917 5919 5923 5924 5926
5854 5855 5854 5853 5855 5858 5858 5859 5861 5861 5860 5860 5859 5860 5860 5865 5865 5868 5869 5870 5873 5875 5879 5875 5877 5879 5881 5882 5884 5886 5889 5890 5893 5896 5898 5900 5901 5903 5904 5906 5908 5908 5909 5912 5914 5916 5918 5920 5922
5851 5850 5851 5850 5853 5854 5856 5858 5860 5860 5860 5860 5858 5857 5857 5859 5862 5863 5866 5868 5870 5874 5874 5871 5875 5878 5878 5878 5879 5881 5884 5887 5890 5893 5894 5895 5897 5901 5903 5904 5906 5905 5906 5908 5910 5912 5914 5917 5919
5847 5848 5848 5848 5848 5850 5853 5855 5858 5858 5857 5858 5856 5856 5856 5856 5857 5863 5863 5865 5866 5870 5870 5870 5871 5873 5876 5876 5876 5877 5880 5882 5886 5889 5890 5891 5892 5895 5898 5900 5902 5903 5903 5904 5906 5907 5908 5911 5914
5847 5846 5847 5848 5847 5848 5850 5853 5854 5855 5853 5854 5856 5857 5856 5855 5856 5859 5860 5861 5862 5866 5868 5866 5866 5869 5872 5873 5873 5874 5875 5877 5880 5883 5885 5887 5887 5890 5893 5895 5897 5898 5900 5901 5903 5904 5906 5906 5910
5843 5843 5843 5844 5847 5846 5846 5850 5852 5853 5850 5851 5854 5856 5856 5856 5855 5857 5859 5859 5860 5862 5863 5864 5863 5866 5868 5869 5870 5870 5871 5874 5876 5879 5879 5881 5883 5885 5886 5887 5889 5891 5893 5897 5900 5901 5901 5903 5904
Wind_Speed
4 4 2 3 1 1 2 5 5 3 3 1 2 3 3 3 5 5 4 4 6 5 5 9 10 9 8 3 4 1 4 6 3 2 4 5 5 3 5 5 6 7 9 8 9 9 10 11 11
5 3 2 7 5 4 4 4 4 6 4 3 1 2 4 5 4 5 7 7 7 6 6 2 8 9 7 5 4 2 6 8 5 3 4 6 3 4 4 5 6 7 8 7 10 10 10 10 11
5 5 7 6 6 8 3 7 3 3 3 1 2 1 2 3 4 5 6 5 6 9 8 7 9 12 8 7 3 4 3 7 7 6 6 6 4 4 4 5 5 7 7 8 9 9 8 10 11
8 8 9 7 14 8 7 2 4 4 4 2 1 2 2 3 3 1 4 5 6 11 10 9 11 14 9 6 6 7 4 8 9 8 8 7 5 5 5 5 5 7 7 10 8 8 10 10 12
11 12 10 10 14 12 7 6 6 4 4 2 0 2 2 3 1 1 3 5 5 10 8 7 12 12 11 8 8 10 7 7 10 11 9 7 6 6 5 5 5 7 9 9 10 11 13 13 13
10 11 14 13 21 16 9 6 6 3 3 2 0 1 2 3 3 1 3 4 4 6 5 3 13 13 8 7 8 9 8 10 12 12 10 9 8 8 6 6 5 8 11 10 14 13 15 13 12
11 13 10 8 21 19 14 4 6 1 3 3 2 1 2 5 3 2 5 3 3 5 7 7 7 9 10 8 7 8 9 10 12 13 12 11 11 10 8 6 7 9 12 13 16 15 16 16 15
14 25 4 7 13 16 6 11 3 0 3 3 3 3 0 5 4 3 6 6 5 5 7 7 9 11 9 8 9 8 9 10 12 13 14 15 13 11 9 5 8 10 13 15 15 17 12 14 14
10 6 11 9 8 13 16 10 4 3 3 4 4 3 4 7 6 4 6 8 4 5 7 9 8 10 8 8 10 11 10 11 12 13 15 12 12 14 12 8 11 12 14 14 13 13 13 13 15
7 6 9 8 5 5 7 8 2 2 2 1 6 5 6 7 6 3 4 4 7 6 5 9 9 9 10 10 10 13 13 14 13 13 12 13 9 8 13 11 12 13 12 11 12 12 13 11 13
7 3 5 8 8 10 3 10 4 5 1 1 4 6 4 7 6 4 3 6 6 6 8 7 9 8 8 10 13 18 16 16 12 12 13 12 14 12 13 14 15 14 10 9 8 6 12 10 10
8 4 5 8 8 5 5 7 4 3 4 5 4 5 4 5 7 7 7 8 9 11 12 8 7 6 4 8 15 17 17 16 14 21 13 14 13 13 12 12 14 11 8 8 8 9 8 8 10
13 4 6 6 3 3 5 6 6 3 10 8 6 4 6 6 8 9 7 7 9 9 6 7 6 9 5 2 9 15 11 10 13 11 11 13 13 15 12 12 12 8 6 8 4 4 4 8 7
2 1 3 3 2 2 4 9 4 5 9 4 7 3 5 6 7 9 7 6 8 8 9 9 9 10 4 4 10 16 13 7 10 16 15 13 16 14 11 12 10 7 6 7 5 3 2 3 4
4 3 1 5 4 2 4 8 2 5 11 7 1 2 5 9 7 6 7 6 11 9 8 8 6 4 2 6 9 11 10 11 14 19 14 17 16 14 13 14 13 10 7 5 4 2 4 2 5
1 4 2 2 2 6 3 8 10 10 10 14 9 5 9 11 10 9 8 8 11 10 7 6 7 4 4 9 10 11 11 13 11 13 11 14 14 14 14 16 15 12 8 3 4 4 3 2 4
3 2 1 7 3 6 6 9 7 14 14 14 18 10 10 14 12 10 9 7 7 7 5 5 7 8 8 9 7 9 11 11 11 12 15 13 14 15 14 15 16 13 10 7 5 7 8 5 2
6 9 7 3 8 9 8 4 4 9 14 16 15 8 10 14 9 7 9 10 7 6 6 7 6 6 7 7 7 8 12 12 11 12 12 14 18 18 17 16 18 15 12 11 7 6 8 7 7
9 8 11 4 4 3 8 1 7 2 6 19 22 12 8 8 8 7 8 10 7 7 6 3 6 7 8 9 9 10 12 15 16 16 14 9 12 19 22 18 19 17 14 12 9 9 7 5 5
7 10 10 5 4 5 5 5 3 3 6 12 19 17 15 9 9 7 9 9 8 7 5 4 6 8 10 10 9 8 10 12 12 12 13 12 10 18 21 25 24 18 18 16 12 8 8 6 3
13 14 11 4 2 4 7 5 3 3 2 6 4 14 15 9 7 9 9 8 6 5 7 7 5 7 9 8 10 12 11 11 13 13 14 14 14 15 14 16 26 26 22 16 15 9 7 8 8
20 16 11 6 7 5 3 3 5 2 3 5 7 6 10 12 8 10 6 9 6 7 9 8 8 5 6 9 12 14 14 16 15 14 14 14 17 18 14 16 25 24 21 15 17 14 8 7 5
9 15 11 8 14 14 5 4 5 3 6 10 6 6 6 10 9 7 5 9 11 3 13 11 10 10 10 10 12 13 15 17 17 17 15 16 15 15 15 14 16 16 19 20 17 12 6 10 8
10 11 16 17 16 14 10 7 7 5 9 5 12 7 11 12 15 8 3 1 13 1 10 12 12 12 9 10 9 11 16 18 21 21 20 20 19 17 17 15 14 15 15 19 19 15 13 7 10
4 4 18 24 23 16 10 9 6 9 9 11 11 11 13 14 15 10 9 7 6 3 4 8 12 13 10 10 11 12 16 19 20 23 22 22 23 22 20 18 18 17 15 18 18 18 17 16 12
6 8 16 26 23 15 16 10 7 7 8 6 8 14 18 16 18 14 13 13 10 9 9 3 15 11 13 13 12 11 13 17 19 22 23 22 22 23 22 20 19 20 18 17 18 18 16 16 13
7 9 11 20 22 21 19 10 4 10 2 8 4 8 16 15 27 15 15 15 14 15 14 13 13 13 15 16 15 16 16 17 19 21 24 22 21 22 24 25 25 22 21 19 18 17 16 16 16
5 16 14 16 19 24 19 13 7 5 5 11 13 10 10 16 23 18 18 17 14 17 18 19 17 16 14 15 17 16 18 18 18 21 21 22 22 23 24 25 26 23 21 21 19 19 18 19 18
3 11 13 15 19 19 21 15 11 4 5 10 13 4 6 8 15 16 16 14 15 14 16 15 13 14 17 19 23 23 20 21 20 22 24 24 24 25 25 25 24 24 23 23 23 21 20 19 18
13 9 9 14 18 20 18 16 11 4 3 17 7 2 4 6 13 16 16 16 13 12 12 14 13 13 18 22 22 25 25 23 23 23 26 27 27 27 29 28 27 26 26 26 27 26 25 23 20
Wind_Direction
135 156 209 143 31 80 84 99 47 342 13 118 132 117 163 140 151 214 213 189 195 183 202 215 207 208 202 220 164 170 180 167 154 145 124 120 123 112 113 130 127 97 93 70 61 54 54 57 58
159 193 269 240 298 267 167 99 47 46 47 321 54 123 158 192 196 197 200 192 184 203 204 209 211 205 207 207 161 128 173 169 167 162 152 131 126 135 143 151 117 99 90 70 57 52 54 67 65
206 233 246 237 214 200 315 87 97 138 86 253 5 341 140 157 183 207 203 197 202 200 198 207 218 206 200 182 187 165 130 180 177 169 167 147 151 150 162 157 122 105 92 75 58 55 58 60 63
229 245 246 260 211 230 262 62 112 121 93 299 333 11 77 119 119 180 225 198 197 201 202 180 168 165 176 168 188 177 204 180 174 166 176 151 166 180 185 162 125 111 100 77 62 62 52 57 60
245 252 254 256 222 205 243 208 106 22 126 174 26 20 49 101 137 207 235 203 200 197 184 182 184 172 171 170 177 169 182 185 170 171 177 161 173 192 189 146 132 128 103 80 71 61 58 50 50
271 269 257 259 179 174 200 212 283 315 87 90 46 46 12 77 80 46 200 204 186 185 180 164 165 173 170 175 174 192 172 159 162 168 185 174 177 194 189 153 154 134 102 81 70 63 60 61 57
1 307 247 183 198 179 181 155 205 77 99 112 96 45 40 88 53 192 163 177 162 156 162 180 186 184 196 190 172 190 183 182 180 180 191 182 188 192 191 166 159 130 99 82 76 76 73 70 63
290 333 22 196 205 172 226 183 135 356 119 112 121 129 93 79 109 108 138 161 166 167 175 166 179 195 196 191 199 204 198 193 194 198 195 191 189 197 192 176 161 132 103 89 90 89 85 76 77
348 6 358 100 97 229 247 199 360 360 57 144 128 176 103 75 84 107 159 150 126 175 175 173 177 185 177 173 204 215 215 198 192 202 203 220 217 202 189 174 161 139 109 105 108 94 91 78 79
303 340 69 73 17 333 175 190 301 55 136 83 148 202 119 104 109 124 112 123 158 167 140 162 168 170 178 202 216 218 215 201 210 201 207 212 233 248 191 170 160 147 128 127 117 111 90 71 78
305 13 73 43 22 360 222 206 49 166 18 162 172 178 135 128 127 111 149 168 173 166 136 149 147 155 188 207 210 220 216 220 223 220 218 207 218 228 194 167 171 162 163 133 115 114 105 99 97
277 333 30 30 18 342 25 224 294 231 243 201 169 156 169 155 136 132 169 163 145 145 140 142 182 186 212 262 222 227 222 218 220 237 222 212 218 221 185 167 180 178 164 144 122 95 128 130 127
322 354 66 29 35 13 331 297 312 231 187 203 177 158 157 162 152 143 163 159 154 171 167 149 99 132 117 115 192 207 187 200 222 176 215 211 209 195 179 176 188 192 170 164 162 122 112 123 106
275 269 14 68 157 246 321 330 319 187 143 152 135 150 145 161 151 155 168 165 152 158 155 157 148 138 112 85 125 132 141 121 162 184 161 174 180 180 169 182 195 206 196 170 212 185 211 103 111
258 217 39 327 330 52 349 338 190 258 235 218 359 180 152 177 137 171 177 165 168 156 155 164 180 175 175 151 141 127 142 131 156 157 166 178 171 181 180 179 198 212 216 171 204 234 247 327 63
196 171 255 338 276 300 285 315 237 223 220 223 235 199 160 172 175 174 173 124 145 158 160 169 163 154 156 161 131 128 130 140 161 174 165 169 182 187 188 191 201 205 220 205 156 201 237 162 85
174 105 231 255 207 256 303 335 232 235 263 247 257 219 177 160 161 178 152 149 166 187 189 195 172 169 169 175 152 146 137 146 158 169 169 184 199 202 199 202 207 203 205 214 193 183 198 156 147
226 214 235 320 277 256 264 315 332 310 278 241 202 246 198 169 146 151 147 156 191 237 230 196 191 189 180 201 189 173 157 170 169 175 194 207 224 206 212 212 214 208 208 217 197 198 177 173 143
229 234 238 148 78 201 238 269 300 300 284 236 216 227 213 194 167 164 150 141 183 185 208 196 184 204 199 205 199 203 174 175 187 187 207 222 226 212 211 210 217 215 211 229 207 198 183 178 185
239 255 241 178 254 275 187 70 154 212 295 320 246 223 216 204 190 178 148 156 187 173 180 186 211 213 210 209 191 167 170 181 198 199 211 220 237 229 237 220 206 212 211 228 218 212 190 185 162
234 243 237 203 314 347 358 50 83 103 72 2 324 226 202 173 172 192 171 186 190 191 178 201 207 218 213 213 203 199 204 199 203 204 205 215 230 238 228 208 214 207 203 218 228 196 202 200 180
230 225 239 228 262 239 73 208 220 100 18 108 64 21 215 197 169 189 184 174 185 187 190 202 204 228 251 212 210 207 206 203 213 222 213 218 217 216 227 214 206 209 207 213 223 220 224 223 228
222 243 241 239 257 244 244 165 239 218 162 179 157 124 97 203 166 148 180 191 200 274 204 205 207 212 222 239 214 211 212 205 212 218 220 221 219 210 213 201 202 201 217 223 226 214 233 242 238
215 234 258 245 244 255 255 227 218 248 221 207 198 186 173 150 164 141 213 268 177 113 197 210 222 230 220 208 213 198 210 215 205 211 214 215 221 218 214 216 224 223 223 228 235 236 242 232 248
169 283 250 255 256 264 278 253 255 222 218 230 177 191 212 183 164 178 206 190 192 225 276 173 194 196 213 209 203 207 203 217 211 205 214 209 216 228 218 215 218 225 222 231 238 244 243 250 257
207 262 249 236 248 267 258 268 270 247 218 216 220 228 231 230 188 185 201 210 216 226 228 218 189 194 222 223 220 220 222 208 219 213 213 213 213 220 230 233 224 221 225 224 229 234 239 244 242
251 267 213 226 235 245 256 248 246 210 257 213 256 254 241 220 218 206 207 211 214 236 223 194 212 236 248 243 228 216 217 219 218 225 218 216 221 221 224 224 228 222 225 226 227 225 224 235 240
210 185 204 223 222 230 237 243 258 176 182 235 239 280 285 242 231 238 219 219 208 223 226 223 222 240 253 250 231 235 231 224 221 231 230 222 219 225 227 228 229 229 225 230 232 233 225 226 233
208 192 229 239 217 226 232 225 252 267 211 254 213 243 280 232 222 217 208 213 214 213 222 224 238 236 254 243 241 240 243 239 230 228 231 233 225 221 227 233 233 234 233 235 236 240 243 236 232
229 209 233 248 251 250 243 228 235 137 341 166 190 167 267 243 205 201 205 198 212 216 226 232 243 249 250 245 234 239 245 245 246 234 229 234 233 227 226 228 231 233 233 238 244 242 241 244 238